Weather History for College Park, MD

Change the Weather History Date:

Friday, March 29, 2013

  Actual Average Record
Temperature  
Mean Temperature 48 °F -  
Max Temperature 57 °F 62 °F 85 °F (1985)
Min Temperature 39 °F 41 °F 18 °F (1959)
Degree Days  
Heating Degree Days 17    
Moisture  
Dew Point 30 °F    
Average Humidity 49    
Maximum Humidity 74    
Minimum Humidity 33    
Precipitation  
Precipitation 0.00 in - - ()
Sea Level Pressure  
Sea Level Pressure 30.21 in    
Wind  
Wind Speed 6 mph (NW)    
Max Wind Speed 15 mph    
Max Gust Speed 21 mph    
Visibility 10 miles    
Events      
Averages and records for this station are not official NWS values.
T = Trace of Precipitation, MM = Missing Value Source: NWS Daily Summary

Daily Weather History Graph

Daily Weather History Graph

Search for Another Location

Airport:

Trip Planner

Search our weather history database for the weather conditions in past years. The results will help you decide how hot, cold, wet, or windy it might be!

Date:

Astronomy

Mar. 29, 2013 Rise Set
Actual Time 6:56 AM EDT 7:28 PM EDT
Civil Twilight 6:29 AM EDT 7:55 PM EDT
Nautical Twilight 5:58 AM EDT 8:27 PM EDT
Astronomical Twilight 5:25 AM EDT 8:59 PM EDT
Moon 10:24 PM EDT (3/29) 8:05 AM EDT (3/29)
Length of Visible Light 13h 25m
Length of Day
12h 32m
Waning Gibbous, 93% of the Moon is Illuminated
Mar 29
Waning Gibbous
Apr 3
Last Quarter
Apr 10
New
Apr 18
First Quarter
Apr 25
Full

Hourly Weather History & Observations

Time (EDT) Temp. Windchill Dew Point Humidity Pressure Visibility Wind Dir Wind Speed Gust Speed Precip Events Conditions
12:05 AM 46.6 °F - 32.0 °F 57% 30.23 in 10.0 mi NW 6.9 mph - N/A   Overcast
12:25 AM 46.4 °F 42.4 °F 32.0 °F 57% 30.23 in 10.0 mi WNW 8.1 mph - N/A   Overcast
1:05 AM 46.4 °F 42.9 °F 32.0 °F 57% 30.23 in 10.0 mi NW 6.9 mph - N/A   Overcast
1:25 AM 46.4 °F 42.9 °F 32.0 °F 57% 30.24 in 10.0 mi NW 6.9 mph - N/A   Overcast
2:25 AM 46.0 °F 42.5 °F 32.2 °F 58% 30.24 in 10.0 mi WNW 6.9 mph - N/A   Overcast
4:25 AM 45.3 °F 41.1 °F 29.1 °F 53% 30.23 in 10.0 mi NW 8.1 mph - N/A   Overcast
4:45 AM 45.0 °F 41.2 °F 27.5 °F 50% 30.23 in 10.0 mi NW 6.9 mph - N/A   Overcast
5:05 AM 44.6 °F 40.2 °F 26.8 °F 50% 30.23 in 10.0 mi NW 8.1 mph - N/A   Mostly Cloudy
5:25 AM 44.6 °F 43.1 °F 26.6 °F 49% 30.23 in 10.0 mi NW 3.5 mph - N/A   Mostly Cloudy
5:45 AM 43.9 °F 41.3 °F 26.6 °F 51% 30.23 in 10.0 mi North 4.6 mph - N/A   Mostly Cloudy
6:10 AM 44.4 °F 42.0 °F 26.6 °F 50% 30.24 in 10.0 mi West 4.6 mph - N/A   Mostly Cloudy
6:30 AM 43.9 °F - 27.3 °F 52% 30.24 in 10.0 mi Calm Calm - N/A   Overcast
7:10 AM 43.0 °F 41.3 °F 29.3 °F 59% 30.24 in 10.0 mi WNW 3.5 mph - N/A   Scattered Clouds
7:30 AM 42.8 °F - 29.7 °F 60% 30.25 in 10.0 mi Calm Calm - N/A   Clear
7:50 AM 43.0 °F 39.5 °F 30.2 °F 61% 30.25 in 10.0 mi WNW 5.8 mph - N/A   Clear
8:10 AM 44.4 °F 42.0 °F 31.1 °F 60% 30.26 in 10.0 mi West 4.6 mph - N/A   Clear
8:30 AM 45.9 °F 42.9 °F 31.6 °F 58% 30.26 in 10.0 mi WNW 5.8 mph - N/A   Clear
8:50 AM 46.9 °F - 32.0 °F 56% 30.26 in 10.0 mi West 11.5 mph - N/A   Clear
9:10 AM 47.7 °F - 32.0 °F 55% 30.26 in 10.0 mi WNW 10.4 mph - N/A   Clear
9:30 AM 49.1 °F - 31.3 °F 50% 30.26 in 10.0 mi NW 10.4 mph - N/A   Scattered Clouds
9:50 AM 49.1 °F - 31.3 °F 50% 30.26 in 10.0 mi WNW 10.4 mph - N/A   Scattered Clouds
10:10 AM 50.4 °F - 31.6 °F 49% 30.25 in 10.0 mi NNW 6.9 mph - N/A   Scattered Clouds
10:30 AM 50.4 °F - 31.3 °F 48% 30.25 in 10.0 mi West 6.9 mph 16.1 mph N/A   Mostly Cloudy
10:50 AM 51.8 °F - 32.0 °F 47% 30.25 in 10.0 mi NW 10.4 mph - N/A   Mostly Cloudy
11:10 AM 52.5 °F - 32.2 °F 46% 30.24 in 10.0 mi NNW 11.5 mph - N/A   Mostly Cloudy
11:30 AM 52.7 °F - 32.2 °F 46% 30.24 in 10.0 mi WNW 9.2 mph - N/A   Overcast
11:50 AM 53.2 °F - 32.5 °F 45% 30.23 in 10.0 mi NW 8.1 mph - N/A   Overcast
12:10 PM 54.0 °F - 32.0 °F 43% 30.23 in 10.0 mi West 9.2 mph 18.4 mph N/A   Overcast
12:30 PM 54.5 °F - 32.2 °F 43% 30.22 in 10.0 mi WNW 6.9 mph 10.4 mph N/A   Overcast
12:50 PM 55.2 °F - 32.2 °F 42% 30.21 in 10.0 mi WNW 9.2 mph - N/A   Overcast
1:10 PM 55.8 °F - 31.5 °F 40% 30.20 in 10.0 mi West 8.1 mph 18.4 mph N/A   Overcast
1:30 PM 56.3 °F - 30.2 °F 37% 30.20 in 10.0 mi WNW 4.6 mph 20.7 mph N/A   Overcast
1:50 PM 56.7 °F - 29.7 °F 36% 30.19 in 10.0 mi North 10.4 mph 17.3 mph N/A   Mostly Cloudy
2:10 PM 56.3 °F - 29.1 °F 35% 30.18 in 10.0 mi NNW 15.0 mph - N/A   Scattered Clouds
2:30 PM 55.6 °F - 28.4 °F 35% 30.18 in 10.0 mi NNW 9.2 mph 19.6 mph N/A   Overcast
2:50 PM 55.4 °F - 28.2 °F 35% 30.17 in 10.0 mi NW 8.1 mph - N/A   Overcast
3:10 PM 55.4 °F - 28.4 °F 36% 30.17 in 10.0 mi NW 8.1 mph - N/A   Overcast
3:30 PM 55.0 °F - 29.3 °F 37% 30.17 in 10.0 mi NNW 6.9 mph - N/A   Overcast
3:50 PM 57.0 °F - 30.0 °F 36% 30.16 in 10.0 mi NNW 10.4 mph 18.4 mph N/A   Overcast
4:10 PM 57.4 °F - 28.9 °F 34% 30.16 in 10.0 mi NW 10.4 mph 17.3 mph N/A   Mostly Cloudy
4:30 PM 56.3 °F - 28.0 °F 34% 30.15 in 10.0 mi WNW 11.5 mph 16.1 mph N/A   Mostly Cloudy
4:50 PM 56.3 °F - 28.9 °F 35% 30.15 in 10.0 mi WNW 9.2 mph - N/A   Mostly Cloudy
5:10 PM 56.3 °F - 28.4 °F 34% 30.15 in 10.0 mi WNW 11.5 mph 17.3 mph N/A   Mostly Cloudy
5:30 PM 57.2 °F - 29.5 °F 35% 30.15 in 10.0 mi NNW 6.9 mph - N/A   Mostly Cloudy
5:50 PM 57.6 °F - 28.6 °F 33% 30.15 in 10.0 mi WNW 12.7 mph 17.3 mph N/A   Mostly Cloudy
6:10 PM 57.0 °F - 28.2 °F 33% 30.15 in 10.0 mi NNW 6.9 mph 10.4 mph N/A   Scattered Clouds
6:30 PM 55.9 °F - 28.0 °F 34% 30.15 in 10.0 mi NNW 6.9 mph - N/A   Scattered Clouds
7:05 PM 54.7 °F - 28.2 °F 36% 30.16 in 10.0 mi NNW 3.5 mph - N/A   Mostly Cloudy
7:30 PM 54.5 °F - 27.7 °F 36% 30.16 in 10.0 mi Calm Calm - N/A   Mostly Cloudy
7:50 PM 54.0 °F - 27.7 °F 36% 30.16 in 10.0 mi Calm Calm - N/A   Mostly Cloudy
8:10 PM 54.0 °F - 27.5 °F 36% 30.17 in 10.0 mi Calm Calm - N/A   Mostly Cloudy
8:30 PM 53.6 °F - 27.3 °F 36% 30.17 in 10.0 mi Calm Calm - N/A   Mostly Cloudy
9:10 PM 46.0 °F - 32.9 °F 60% 30.19 in 10.0 mi Calm Calm - N/A   Scattered Clouds
9:30 PM 44.6 °F - 34.0 °F 66% 30.19 in 10.0 mi Calm Calm - N/A   Scattered Clouds
9:50 PM 43.2 °F - 32.5 °F 66% 30.20 in 10.0 mi Calm Calm - N/A   Clear
10:10 PM 42.3 °F - 32.7 °F 69% 30.20 in 10.0 mi Calm Calm - N/A   Clear
10:30 PM 41.2 °F - 32.7 °F 72% 30.20 in 10.0 mi Calm Calm - N/A   Clear
10:50 PM 40.8 °F - 32.9 °F 73% 30.21 in 10.0 mi Calm Calm - N/A   Clear
11:10 PM 40.5 °F - 31.8 °F 71% 30.21 in 10.0 mi Calm Calm - N/A   Clear
11:30 PM 39.6 °F - 32.0 °F 74% 30.20 in 10.0 mi Calm Calm - N/A   Clear
11:50 PM 39.2 °F - 31.5 °F 74% 30.20 in 10.0 mi Calm Calm - N/A   Scattered Clouds